Location: 相模原市立博物館
(35.5593°N, 139.3931°E)
Time: 03:07:10
(UTC+09:00)

ISS - Pass Details

Date: 05 August 2021
Orbit: 417 x 423 km, 51.6° (Epoch: 26 September)

Event Time Altitude Azimuth Distance (km) Brightness Sun altitude
Rises 20:06:29 0° 295° (WNW) 2,343 1.8 -15.8°
Reaches altitude 10° 20:09:03 10° 274° (W) 1,480 -0.1 -16.3°
Maximum altitude 20:11:18 17° 231° (SW) 1,123 -1.4 -16.6°
Enters shadow 20:12:54 13° 198° (SSW) 1,315 -1.4 -16.9°
